www.pogodaiklimat.ru

Погода и климат >> Архив погоды >> Китай >> Внутренняя Монголия >> Эдзин-Ци


ПОГОДА в Эдзин-Ци

  • Прогноз погоды в Эдзин-Ци
  • Монитор погоды в Эдзин-Ци

АРХИВ ПОГОДЫ в Эдзин-Ци

Время (UTC), дата Ветер
(напр.,м/с)
 
Видим.   Явления Облачность Т
(С)
Тd
(С)
f
(%)
Тe
(С)
Тes
(С)
Комфортность P
(гПа)
Po
(гПа)
Тmin
(С)
Tmax
(С)
R
(мм)
R24
(мм)
S
(см)
03 18.08 В 3 20 км 9/9 1500 м
[]
+27.4 +5.1 24 +26 +27 жарко 1000.8 899.2
06 18.08 В 5 8000 м 9/9
[]
+34.4 +2.0 13 +31 +32 жарко 997.3 897.4 +20.9
09 18.08 В 4 18 км 9/9 1500 м
[]
+35.0 +2.5 13 +32 +32 жарко 995.6 896.9
12 18.08 В 2 24 км 9/9 1500 м
[]
+32.3 +3.3 16 +30 +30 жарко 996.1 895.6
15 18.08 В 2 22 км н/о +30.0 +2.3 17 +28 +28 жарко 997.1 896.7
18 18.08 В 3 30 км ?/? +28.9 +2.2 18 +27 +27 жарко 996.1 897.0 +35.8
21 18.08 В 3 30 км н/о +27.5 +4.5 23 +26 +26 жарко 996.0 895.0
00 19.08 С 4 30 км 9/9 1500 м
[]
+25.5 +8.9 35 +26 +26 жарко 999.9 899.6
03 19.08 С 4 14 км слаб. ливневой дождь 9/9 1500 м
[]
+22.2 +13.0 56 +25 +26 комфорт 1004.9 901.2
06 19.08 СЗ 5 30 км слаб. ливневой дождь 9/9 1500 м
[]
+20.4 +10.8 54 +22 +23 комфорт 1007.3 904.9 +20.4 0.0
09 19.08 З 4 20 км слаб. ливневой дождь 9/9 1500 м
[]
+17.5 +15.0 85 +17 +18 1009.3 903.6
12 19.08 ЮЗ 4 30 км {ливн. осадки} 3/3 1500 м
[]
+17.9 +14.0 78 +18 +18 1008.4 904.9 1
15 19.08 ЮЗ 3 30 км н/о +17.4 +12.9 75 +17 +17 1010.0 904.2
18 19.08 З 2 30 км ?/? +16.6 +11.7 73 +17 +17 1009.9 905.2 +29.0
21 19.08 З 1 30 км н/о +14.1 +10.1 77 +14 +14 1012.1 904.9
00 20.08 З 2 30 км ясно +14.2 +11.0 81 +14 +15 1014.0 908.0
03 20.08 С 4 30 км 1/1
[]
+23.9 +5.8 31 +24 +31 комфорт 1013.0 909.1
06 20.08 З 1 30 км 3/3
[]
+27.5 -0.5 16 +25 +38 комфорт 1011.6 907.9 +13.0
09 20.08 В 2 30 км ясно +29.1 -0.1 15 +26 +33 жарко 1009.9 908.0
12 20.08 Ю 2 25 км ясно +27.1 +0.8 18 +25 +25 комфорт 1009.4 905.5
15 20.08 З 1 30 км н/о +22.9 +2.4 26 +22 +22 комфорт 1009.9 905.9
18 20.08 В 2 29 км ?/? +21.7 +2.4 28 +22 +22 комфорт 1009.7 907.0 +29.8
21 20.08 В 6 4800 м мгла н/о +21.5 +2.2 28 +21 +21 комфорт 1010.1 905.7
00 21.08 В 5 7000 м пыльный позёмок 9/9 1500 м
[]
+20.3 +3.9 34 +21 +21 комфорт 1011.3 908.2
03 21.08 Ю 3 8000 м пыльный позёмок 9/9
[]
+25.2 +4.9 27 +25 +26 комфорт 1011.9 908.5
06 21.08 ЮЗ 3 30 км 9/9
[]
+28.7 +5.5 23 +27 +29 жарко 1010.2 907.7 +19.9
09 21.08 Ю 2 30 км 9/9 1500 м
[]
+27.9 +6.6 26 +27 +28 жарко 1010.1 907.8
12 21.08 Ю 2 30 км 9/9 1500 м
[]
+26.3 +6.9 29 +26 +26 жарко 1010.4 907.2
15 21.08 ЮЗ 2 30 км н/о +23.2 +9.9 43 +25 +25 комфорт 1011.1 907.1
18 21.08 ЮЗ 2 30 км ?/? +20.4 +12.6 61 +23 +23 комфорт 1011.4 908.5 +29.1
21 21.08 ЮВ 1 30 км н/о +18.2 +12.2 68 +20 +20 1012.3 906.5
00 22.08 ЮВ 1 30 км 9/9 2000 м
[]
+18.9 +12.9 68 +21 +21 комфорт 1013.4 909.7
03 22.08 Ю 3 30 км 9/9 1500 м
[]
+24.3 +12.9 49 +26 +27 жарко 1013.0 909.2
06 22.08 Ю 2 30 км 9/9 1500 м
[]
+24.8 +11.4 43 +26 +28 жарко 1011.8 908.3 +17.3
09 22.08 Ю 2 30 км 9/9 1500 м
[]
+25.4 +11.6 42 +27 +27 жарко 1010.9 907.7
12 22.08 СВ 1 30 км 9/9 1500 м
[]
+25.0 +11.9 44 +27 +27 жарко 1010.3 906.7
15 22.08 В 1 30 км н/о +23.4 +12.1 49 +26 +26 жарко 1009.8 906.0
18 22.08 СВ 2 20 км слаб. дождь ?/? +22.1 +13.2 57 +25 +25 комфорт 1009.5 906.5 +26.0
21 22.08 СВ 3 30 км н/о +20.6 +13.1 62 +23 +23 комфорт 1009.9 905.2
00 23.08 В 3 30 км 9/9 1500 м
[]
+19.4 +13.6 69 +21 +21 комфорт 1011.0 907.4 0.0
03 23.08 В 5 23 км 5/5
[]
+22.8 +13.6 56 +26 +29 жарко 1011.2 907.1
06 23.08 В 2 28 км 1/1 1500 м
[]
+26.7 +11.6 39 +28 +42 жарко 1008.7 906.1 +19.3
09 23.08 С 3 29 км ясно +28.4 +11.5 35 +29 +34 жарко 1007.5 905.6
12 23.08 В 2 30 км ясно +26.5 +12.6 42 +28 +28 жарко 1007.4 904.4
15 23.08 В 3 30 км н/о +24.2 +10.8 43 +25 +25 комфорт 1008.1 904.8
18 23.08 В 2 30 км ?/? +21.0 +10.5 51 +24 +24 комфорт 1007.6 904.9 +28.7
21 23.08 В 2 30 км н/о +19.1 +10.7 58 +21 +21 комфорт 1007.4 902.4
00 24.08 В 2 30 км ясно +19.4 +11.7 61 +21 +23 комфорт 1008.5 905.4
03 24.08 ЮВ 2 30 км ясно +29.3 +13.1 37 +31 +42 жарко 1007.0 905.4
06 24.08 З 4 30 км 5/5 1500 м
[]
+34.1 +6.4 18 +32 +37 жарко 1004.4 903.2 +17.7
09 24.08 З 2 30 км 3/3 1500 м
[]
+35.4 +3.9 14 +32 +37 жарко 1002.5 903.3
12 24.08 С 2 24 км 3/3 1500 м
[]
+31.6 +5.2 19 +30 +30 жарко 1003.3 901.6
15 24.08 В 2 30 км н/о +25.8 +9.2 35 +26 +26 жарко 1004.3 901.9
18 24.08 В 2 30 км ?/? +23.5 +9.9 42 +25 +25 комфорт 1003.9 903.2 +35.7
21 24.08 С 2 30 км н/о +19.0 +10.3 57 +20 +20 1004.3 899.6
00 25.08 СВ 1 30 км 9/9
[]
+21.2 +11.3 53 +23 +23 комфорт 1005.9 904.2

 

Местоположение метеостанции Эдзин-Ци (Внутренняя Монголия, Китай): широта 41.95 долгота 101.06 высота над уровнем моря 941 м.

В архиве по умолчанию представлена погода в Эдзин-Ци за последнюю неделю. Архивные данные за месяц целиком и за предыдущие месяцы, начиная с января 2011 года, Вы можете получить, выбрав интересующий диапазон дат из раскрывающегося списка и нажав кнопку "Ввод!".


*Определитесь, кто Вы:
робот инопланетянин человек

Внимание! Время в таблицах - всемирное. Для получения местного времени необходимо прибавить поправку, которая равна 8 ч.

Смотрите также архив погоды в соседних городах и на ближайших метеорологических станциях:

Погода в Гуайцзыху (Внутренняя Монголия, Китай) (126 км)
Погода в Шинэ Уса (Монголия) (127 км)
Погода в Богде (Монголия) (313 км)
Погода в Баян Мод (Внутренняя Монголия, Китай) (317 км)
Погода в Цзюцюан (Ганьсу, Китай) (325 км)
Погода в Даланзадгаде (Монголия) (328 км)
Погода в Мазонг Шанчжэнь (Ганьсу, Китай) (334 км)
Погода в Чжанъе (Цинхай, Китай) (340 км)
Погода в Амарбуйантайане (Монголия) (353 км)
Погода в Юймэне (Ганьсу, Китай) (386 км)

Пояснения к столбцам:

Ветер - указаны скорость ветра в м/с - средняя за 10 мин, порывы в срок и между сроками (в фигурных скобках) и направление, откуда дует ветер: С - северный, СВ - северо-восточный, В - восточный, ЮВ - юго-восточный, Ю - южный, ЮЗ - юго-западный, З - западный, СЗ - северо-западный.
Видимость - горизонтальная дальность видимости в метрах или километрах. При видимости от 1 до 10 км при отсутствии осадков обычно наблюдается дымка, при ухудшении видимости до 1 км и менее - туман. В сухую погоду видимость может ухудшаться дымом, пылью или мглою.
Явления - указаны атмосферные явления, наблюдавшиеся в срок или в последний час перед сроком; фигурными скобками обозначены явления, наблюдавшиеся между сроками (за 1-3 часа до срока); квадратными скобками обозначены град или гололедные отложения с указанием их диаметра в мм.
Облачность - указаны через наклонную черту общая и нижняя облачность в баллах и высота нижней границы облаков в метрах; квадратными скобками обозначены формы облаков: Ci - перистые, Cs - перисто-слоистые, Cc - перисто-кучевые, Ac - высококучевые, As - высокослоистые, Sc - слоисто-кучевые, Ns - слоисто-дождевые, Cu - кучевые, Cb - кучево-дождевые. Подробнее классификацию облаков см. в Атласе облаков (PDF).
T - Температура воздуха - температура, измеренная на высоте 2 м над землей.
Td - Температура точки росы - температура, при понижении до которой содержащийся в воздухе водяной пар достигнет насыщения.
f - Относительная влажность воздуха - влажноcть воздуха, измеренная на высоте 2 м над землей.
Te - Эффективная температура - температура, которую ощущает одетый по сезону человек в тени. Характеристика душности погоды. При расчете учитывается влияние влажности воздуха и скорости ветра на теплоощущения человека.
Tes - Эффективная температура на солнце - температура, которую ощущает человек, с поправкой на солнечный нагрев. Характеристика знойности погоды. Зависит от высоты солнца над горизонтом, облачности и скорости ветра. Ночью, в пасмурную погоду, а также при ветре 12 м/с и более поправка равна нулю.
P - Атмосферное давление - приведенное к уровню моря атмосферное давление.
Po - Атмосферное давление - измеренное на уровне метеостанции атмосферное давление.
Tmin - Минимальная температура - минимум температуры воздуха на высоте 2 м над землей.
Tmax - Максимальная температура - максимум температуры воздуха на высоте 2 м над землей.
R - Количество осадков - Количество выпавших осадков за период времени, мм. При наведении курсора мыши на число - период времени, за который выпало указанное количество осадков.
R24 - Количество осадков - Количество выпавших осадков за 24 часа, мм.
S - Снежный покров - Высота снежного покрова, см. При наведении курсора мыши на число - состояние снежного покрова и степень покрытия местности в баллах.